Погода в Борисоглебском

Россия / Мурманская область     69°39′01″N   30°08′42″E
темп.,
°C
ветер,
м/с
пор.,
м/с
влажн.,
%
обл.,
%
осадки,
мм/ч
давл.,
гПа
погр.,
м
8 августа, пн
пн800:00+9з71183100 0.0 1008620
03:00+9з91184100 0.4 1009729
06:00+9зсз81088100 0.9 1010599
09:00+10зсз91289100 1.9 1012741
12:00+11сз9108297 0.4 1014752
15:00+12сз897396 0.8 1017830
18:00+12сз897085 0.1 1019867
21:00+11зсз69787 0.1 1020295
9 августа, вт
вт900:00+9з478392 0.0 1022174
03:00+9ююз3379100 0.1 102293
06:00+10ю6978100 0.1 1021221
09:00+13юз7969100 0.1 1020414
12:00+16юз81058100 0.0 1019771
15:00+17юз9125799 0.0 10171113
18:00+17зюз81058100 0.0 10161293
21:00+12зсз4681100 0.2 1018140
10 августа, ср
ср1000:00+11зюз1185100 0.3 101812
03:00+10с3393100 1.2 1018115
06:00+10в2594100 1.4 1016306
09:00+11юв2592100 3.3 1014236
12:00+14ююз5784100 0.8 1011602
15:00+16юз81068100 1.3 1009963
18:00+14юз61082100 0.3 1007253
21:00+13ююз71091100 1.1 1006333
11 августа, чт
чт1100:00+12юз81393100 0.0 1004370
03:00+12ююз81388100 0.0 1002321
06:00+13ююз81393100 0.4 998405
09:00+13зюз4796100 7.6 995289
12:00+12сз11159297 3.9 997613
15:00+14з587498 4.4 998679
18:00+14зсз7117293 1.0 999833
21:00+12зюз91574100 1.8 999505
12 августа, пт
пт1200:00+11з141977100 0.0 1000752
03:00+10з13197443 0.2 1001969
06:00+10зюз11167863 0.1 10011072
09:00+10зюз142174100 0.3 10021652
12:00+10з152179100 0.9 10031207
15:00+11з152177100 1.0 10051230
18:00+11зсз14207373 0.1 10081345
21:00+10з1219695 0.1 10091219